Location: Blackwall
(51.5097°N, 0.0016°W)
Time: 23:26:23
(UTC+00:00)

Cosmos 1707 - Pass Details

Date: 15 May 2026
Orbit: 334 x 336 km, 82.5° (Epoch: 6 June)

Event Time Altitude Azimuth Distance (km) Brightness Sun altitude
Exits shadow 22:18:42 53° 145° (SE) 451 2.0 -16.3°
Maximum altitude 22:19:08 63° 98° (E) 408 2.0 -16.3°
Drops below altitude 10° 22:22:02 10° 16° (NNE) 1,355 5.6 -16.5°
Sets 22:24:00 0° 13° (NNE) 2,199 6.8 -16.6°
